Regional Weather Roundup
Issued by NWS

Home | Current Version | Previous Version | Graphics & Text | Print | Product List | Glossary On
Versions: 1 2 3 4 5 6 7 8 9 10 11 12 13 14 15 16 17 18 19 20 21 22 23 24 25 26 27 28 29 30 31 32 33 34 35 36 37 38 39 40 41 42 43 44 45 46 47 48 49 50
000
ASUS43 KFSD 071702
RWRSD

WEATHER ROUNDUP FOR SOUTH DAKOTA
NATIONAL WEATHER SERVICE SIOUX FALLS SD
1100 AM CST WED DEC 07 2016

NOTE: "FAIR" INDICATES FEW OR NO CLOUDS BELOW 12,000 FEET WITH NO
SIGNIFICANT WEATHER AND/OR OBSTRUCTIONS TO VISIBILITY.


SDZ001>005-009-010-012>017-071800-
NORTHWEST AND NORTH CENTRAL SOUTH DAKOTA

CITY           SKY/WX    TMP DP  RH WIND       PRES   REMARKS
BUFFALO          N/A      4  -4  69 NW29G36   30.25R WCI -20
FAITH            N/A      4  -1  80 NW30G40   30.30R WCI -21
MOBRIDGE       MOSUNNY   10   0  63 NW29G41   30.24R WCI -12
$$

SDZ012>016-024>037-041>051-057-063-072>074-071800-
SOUTHWEST AND SOUTH CENTRAL SOUTH DAKOTA

CITY           SKY/WX    TMP DP  RH WIND       PRES   REMARKS
RAPID CTY ARPT CLOUDY     9  -2  61 NW28G33   30.33R WCI -13
PIERRE         CLOUDY    10   2  69 NW23G36   30.33R WCI -10
CUSTER         CLOUDY     6  -5  60 W3        30.09R
ELLSWORTH AFB  CLOUDY     8  -3  60 NW21      30.31R WCI -11
PHILIP         PTSUNNY    9  -1  64 NW21G30   30.38R WCI -11
PINE RIDGE     CLOUDY     8   0  69 CALM      30.33R
SPEARFISH      FLURRIES   3  -6  66 W17G24    30.30R WCI -17
WINNER         FAIR      11  -1  58 NW26      30.34S WCI -10
$$

SDZ004>011-016>023-039-040-071800-
NORTHEAST SOUTH DAKOTA

CITY           SKY/WX    TMP DP  RH WIND       PRES   REMARKS
ABERDEEN       CLOUDY    13   2  61 NW26G33   30.20R WCI  -7
WATERTOWN      CLOUDY    10   4  76 W24G36    30.14R HAZE    WCI -10
SISSETON         N/A     16   7  67 NW28G40   30.09R WCI  -4
$$

SDZ017-020-022-023-036>040-048>070-071800-
SOUTHEAST SOUTH DAKOTA

CITY           SKY/WX    TMP DP  RH WIND       PRES   REMARKS
SIOUX FALLS    CLOUDY    15   6  67 NW21G33   30.22R WCI  -2
HURON          CLOUDY    14   4  64 W25G32    30.27S WCI  -5
CHAMBERLAIN    CLOUDY    10   2  70 NW22G28   30.34R WCI  -9
MITCHELL       MOSUNNY   14   3  61 NW25G35   30.30R WCI  -5
YANKTON        MOSUNNY  N/A N/A N/A W22G29    30.29F
$$

ABBREVIATIONS USED IN REMARKS
   TC - TEMPERATURE IN CELSIUS
  WCI - WIND CHILL INDEX
   HX - HEAT INDEX
  VSB - VISIBILITY





USA.gov is the U.S. government's official web portal to all federal, state and local government web resources and services.